sat.trackr.live / text

‹ back to catalog

STARLINK-37223

NORAD 68387 · 2026-063H

PAYLOAD ACTIVE UNKNOWN

§ Identity

Operator
Country
US
Launch date
2026-03-26
Launch site
AFWTR
Launch vehicle
Mass (kg)
RCS (m²)

Purposes: comms

External: N2YO · Heavens-Above · Gunter

§ Orbital elements

Epoch: 2026-05-25T00:00:02.000160Z

Period
93.90 min
Inclination
97.2844°
Eccentricity
0.0000706
Mean motion
15.33466437 rev/d
Perigee alt
465.0 km
Apogee alt
466.0 km
Semi-major
6,843.6 km
B*
-1.3859e-3
RAAN
287.5511°
Arg perigee
90.0212°
Mean anomaly
112.9973°
Rev number
596

§ Raw data

STARLINK-372231 68387U 26063H   26145.00002315 -.00044584  00000+0 -13859-2 0  99922 68387  97.2844 287.5511 0000706  90.0212 112.9973 15.33466437  5968

JSON: /api/v1/satellites/68387 · /tle

For live sub-satellite position, see the globe view (requires WebGL).

§ Visibility from observer

Set your observer location to see the next 7 days of passes ≥ 10°. The values pass through the URL so the page stays shareable.

No JS? Fill the form by hand. The geolocation button needs JavaScript.